{"data":{"norad_id":59519,"epoch":"2026-09-21T18:09:08.290080Z","epoch_age_seconds":56789,"freshness":"FRESH","line1":"1 59519U 24073J   26264.75634595  .00001149  00000+0  51254-4 0  9994","line2":"2 59519  43.0032 280.1631 0000871 273.2720  86.8032 15.27576883136282","mean_motion":15.27576883,"eccentricity":8.71e-5,"inclination_deg":43.0032,"raan_deg":280.1631,"arg_perigee_deg":273.272,"mean_anomaly_deg":86.8032,"bstar":5.1254e-5,"rev_number":13628,"period_min":94.266941063679,"perigee_km":482.46081935295,"apogee_km":483.65603959677,"semimajor_km":6861.1954294749,"source":"CELESTRAK","updated_at":"2026-09-22T09:00:48.963861Z"}}